Terminal Aerodrome Forecast
Issued by NWS Twin Cities, MN

Home | Current Version | Previous Version | Text Only | Print | Product List | Glossary Off
Versions: 1 2 3 4 5 6 7 8 9 10 11 12 13 14 15 16 17 18 19 20 21 22 23 24 25 26 27

000
FTUS43 KMPX 252300 RRA
TAFMSP
TAF
KMSP 252347Z 2600/2706 21005KT P6SM FEW025 OVC035
     FM260800 VRB03KT P6SM FEW035
      TEMPO 2610/2613 5SM BR
     FM261600 25009KT P6SM SCT120 PROB30 2623/2702 -SHRA BKN050=

USA.gov is the U.S. government's official web portal to all federal, state and local government web resources and services.